This is the latest recevied weather packets stored in our database for station/object WD4IXD. If no packets are shown the sender has not sent any weather packets the latest 10 day(s).
| Time | Temp. | Humidity | Pressure | Rain* | Wind** | Luminosity | Snow |
|---|---|---|---|---|---|---|---|
| 1778100603 | 3.33° C | 81% | 1020.1 hPa | 2.03 mm | - | 322 W/m² | - |
| 1778100315 | 3.33° C | 81% | 1020.1 hPa | 2.03 mm | - | 350 W/m² | - |
| 1778100004 | 3.33° C | 82% | 1020.2 hPa | 2.29 mm | - | 366 W/m² | - |
| 1778099704 | 3.33° C | 83% | 1020.2 hPa | 2.29 mm | - | 323 W/m² | - |
| 1778099404 | 3.33° C | 83% | 1020.2 hPa | 2.29 mm | - | 327 W/m² | - |
| 1778099104 | 3.33° C | 84% | 1020.2 hPa | 2.54 mm | - | 338 W/m² | - |
| 1778098815 | 3.33° C | 85% | 1020.3 hPa | 2.54 mm | - | 411 W/m² | - |
| 1778098503 | 2.78° C | 85% | 1020.3 hPa | 2.54 mm | - | 429 W/m² | - |
| 1778098215 | 2.78° C | 86% | 1020.3 hPa | 2.79 mm | - | 388 W/m² | - |
| 1778097903 | 2.78° C | 87% | 1020.3 hPa | 2.79 mm | - | 367 W/m² | - |
| 1778097615 | 2.78° C | 87% | 1020.4 hPa | 3.05 mm | - | 332 W/m² | - |
| 1778097304 | 2.78° C | 88% | 1020.4 hPa | 3.3 mm | - | 346 W/m² | - |
| 1778097004 | 2.78° C | 88% | 1020.4 hPa | 3.3 mm | - | 359 W/m² | - |
| 1778096703 | 2.22° C | 88% | 1020.4 hPa | 3.3 mm | - | 359 W/m² | - |
| 1778096415 | 2.22° C | 89% | 1020.5 hPa | 3.3 mm | - | 383 W/m² | - |
| 1778096115 | 2.22° C | 89% | 1020.5 hPa | 3.05 mm | - | 420 W/m² | - |
| 1778095804 | 2.22° C | 90% | 1020.4 hPa | 3.05 mm | - | 478 W/m² | - |
| 1778095515 | 2.78° C | 90% | 1020.4 hPa | 3.05 mm | - | 520 W/m² | - |
| 1778095203 | 2.22° C | 91% | 1020.4 hPa | 2.79 mm | - | 555 W/m² | - |
| 1778094915 | 2.22° C | 91% | 1020.5 hPa | 2.79 mm | - | 598 W/m² | - |
| 1778094615 | 2.22° C | 91% | 1020.5 hPa | 2.54 mm | - | 482 W/m² | - |
| 1778094315 | 2.78° C | 92% | 1020.6 hPa | 2.54 mm | - | 526 W/m² | - |
| 1778094015 | 2.78° C | 93% | 1020.5 hPa | 2.03 mm | - | 793 W/m² | - |
| 1778093704 | 2.22° C | 94% | 1020.5 hPa | 2.03 mm | - | 675 W/m² | - |
| 1778093415 | 2.22° C | 93% | 1020.5 hPa | 1.78 mm | - | 390 W/m² | - |
* Rain latest hour (hover to see other rain measurements)
** Current wind speed in m/s (hover to see current wind gust speed)